GW3026 Weather Reports


Display with metric or nautical units.
time (UTC)temp
F
wind
direction
speed
MPH
gust
MPH
rain 1hr
in
rain 24hr
in
rain mn
in
humidity
%
barometer
mb
20260906224604 74 133 7.0 13.0 0.00 0.25 0.00 45 1026.5
20260906224104 74 166 6.0 14.0 0.00 0.25 0.00 46 1026.5
20260906223604 74 141 9.0 14.0 0.00 0.25 0.00 45 1026.6
20260906223104 74 127 5.0 12.0 0.00 0.25 0.00 47 1026.9
20260906222604 74 104 4.0 12.0 0.00 0.25 0.00 48 1027.3
20260906222103 74 140 7.0 12.0 0.00 0.25 0.00 48 1027.4
20260906221604 73 121 5.0 15.0 0.00 0.25 0.00 49 1027.4
20260906221103 72 127 9.0 15.0 0.00 0.25 0.00 50 1027.3
20260906220603 72 126 4.0 10.0 0.00 0.25 0.00 50 1027.3
20260906220104 72 134 6.0 13.0 0.00 0.25 0.00 50 1027.4
20260906215604 72 128 5.0 13.0 0.00 0.25 0.00 49 1027.5
20260906215104 72 133 4.0 16.0 0.00 0.25 0.00 48 1027.3
20260906214604 72 126 7.0 16.0 0.00 0.25 0.00 49 1027.6
20260906213104 73 143 6.0 20.0 0.00 0.25 0.00 47 1027.5
20260906212604 74 149 11.0 20.0 0.00 0.25 0.00 46 1027.8
20260906212104 74 144 6.0 17.0 0.00 0.25 0.00 46 1027.7
20260906211604 73 126 10.0 17.0 0.00 0.25 0.00 46 1027.5
20260906211104 74 156 7.0 20.0 0.00 0.25 0.00 46 1027.5
20260906210605 74 128 9.0 20.0 0.00 0.25 0.00 45 1027.7
20260906210105 75 141 10.0 20.0 0.00 0.25 0.00 44 1027.7
20260906205604 75 164 9.0 17.0 0.00 0.25 0.00 43 1027.6
20260906205104 74 144 7.0 21.0 0.00 0.25 0.00 45 1027.6
20260906204604 75 153 9.0 21.0 0.00 0.25 0.00 45 1027.8
20260906203104 75 123 10.0 24.0 0.00 0.25 0.00 44 1027.7
20260906202604 75 140 6.0 16.0 0.00 0.25 0.00 44 1027.7
20260906201604 75 155 7.0 17.0 0.00 0.25 0.00 44 1027.8
20260906200604 75 129 10.0 17.0 0.00 0.25 0.00 43 1027.9
20260906195604 74 129 10.0 20.0 0.00 0.25 0.00 45 1027.9
20260906195104 73 150 9.0 20.0 0.00 0.25 0.00 45 1028.0
20260906194604 73 127 12.0 20.0 0.00 0.25 0.00 45 1028.1
20260906194104 75 141 11.0 20.0 0.00 0.25 0.00 43 1028.0
20260906193604 73 141 9.0 20.0 0.00 0.25 0.00 44 1027.9
20260906193104 73 138 12.0 22.0 0.00 0.25 0.00 44 1028.1
20260906192604 74 127 12.0 22.0 0.00 0.25 0.00 44 1028.0
20260906191605 75 160 9.0 20.0 0.00 0.25 0.00 42 1028.2
20260906191104 76 150 7.0 15.0 0.00 0.25 0.00 41 1028.3
20260906190605 75 156 5.0 15.0 0.00 0.25 0.00 41 1028.4
20260906185604 75 212 6.0 16.0 0.00 0.25 0.00 39 1028.8
20260906185104 76 196 9.0 16.0 0.00 0.25 0.00 37 1028.3
20260906184605 76 143 7.0 16.0 0.00 0.25 0.00 38 1028.5
20260906183605 74 139 9.0 16.0 0.00 0.25 0.00 38 1028.5
20260906183104 74 134 9.0 17.0 0.00 0.25 0.00 39 1028.5
20260906182604 74 179 9.0 17.0 0.00 0.25 0.00 40 1028.9
20260906182104 74 135 11.0 15.0 0.00 0.25 0.00 38 1028.7
20260906181604 74 139 7.0 15.0 0.00 0.25 0.00 41 1029.0
20260906181104 73 232 7.0 21.0 0.00 0.25 0.00 39 1028.8
20260906180605 74 151 13.0 21.0 0.00 0.25 0.00 39 1028.8
20260906180106 74 135 9.0 15.0 0.00 0.25 0.00 39 1028.9
20260906175604 73 152 7.0 15.0 0.00 0.25 0.00 43 1029.5
20260906175105 73 141 7.0 15.0 0.00 0.25 0.00 41 1029.4
20260906174605 73 168 11.0 17.0 0.00 0.25 0.00 40 1029.2
20260906174104 73 138 9.0 17.0 0.00 0.25 0.00 42 1029.3
20260906173604 72 172 7.0 14.0 0.00 0.25 0.00 41 1029.3
20260906173104 72 149 10.0 14.0 0.00 0.25 0.00 42 1029.6
20260906171605 73 150 10.0 18.0 0.00 0.25 0.00 42 1029.9
20260906170604 73 139 10.0 17.0 0.00 0.25 0.00 42 1029.9
20260906170106 72 131 7.0 14.0 0.00 0.25 0.00 44 1030.3
20260906165604 73 139 9.0 14.0 0.00 0.25 0.00 43 1030.0
20260906165104 72 126 8.0 14.0 0.00 0.25 0.00 43 1030.1
20260906164104 73 133 5.0 12.0 0.00 0.25 0.00 46 1030.2
20260906162104 71 150 5.0 12.0 0.00 0.25 0.00 47 1030.2
20260906161605 71 132 9.0 12.0 0.00 0.25 0.00 44 1030.1
20260906160604 71 167 7.0 10.0 0.00 0.25 0.00 44 1030.1
20260906155605 70 105 3.0 8.0 0.00 0.25 0.00 47 1030.3
20260906155105 70 131 6.0 12.0 0.00 0.25 0.00 45 1030.1
20260906154605 70 150 6.0 12.0 0.00 0.25 0.00 46 1030.2
20260906154105 70 134 3.0 12.0 0.00 0.25 0.00 46 1030.1
20260906153605 70 136 3.0 8.0 0.00 0.25 0.00 45 1030.2
20260906153105 70 141 5.0 8.0 0.00 0.25 0.00 46 1030.2
20260906152105 69 144 3.0 9.0 0.00 0.25 0.00 45 1030.0
20260906151105 67 56 2.0 3.0 0.00 0.25 0.00 51 1030.2
20260906150605 67 42 2.0 3.0 0.00 0.25 0.00 49 1030.0
20260906150105 66 86 1.0 3.0 0.00 0.25 0.00 49 1030.1
20260906145605 65 40 1.0 3.0 0.00 0.25 0.00 49 1030.1
20260906144605 65 42 3.0 3.0 0.00 0.25 0.00 48 1030.2
20260906144105 65 48 2.0 3.0 0.00 0.25 0.00 47 1029.9
20260906143106 67 95 2.0 3.0 0.00 0.25 0.00 46 1030.0
20260906142105 68 134 2.0 5.0 0.00 0.25 0.00 46 1029.8
20260906141605 68 133 2.0 3.0 0.00 0.25 0.00 46 1029.9
20260906141105 67 127 2.0 3.0 0.00 0.25 0.00 45 1029.9
20260906140605 66 37 0.0 2.0 0.00 0.25 0.00 47 1029.7
20260906140106 66 37 1.0 1.0 0.00 0.25 0.00 46 1029.7
20260906135604 66 37 0.0 1.0 0.00 0.25 0.00 48 1030.3
20260906135105 66 37 0.0 3.0 0.00 0.25 0.00 48 1030.4
20260906134106 64 37 2.0 3.0 0.00 0.25 0.00 49 1030.1
20260906133605 64 301 2.0 3.0 0.00 0.25 0.00 47 1029.7
20260906133105 64 287 2.0 3.0 0.00 0.25 0.00 48 1029.7
20260906132605 64 287 2.0 3.0 0.00 0.25 0.00 49 1029.8
20260906131105 63 276 3.0 6.0 0.00 0.25 0.00 49 1029.4
20260906130605 62 268 3.0 6.0 0.00 0.25 0.00 50 1029.3
20260906130106 62 273 5.0 8.0 0.00 0.25 0.00 49 1029.4
20260906125106 61 274 5.0 8.0 0.00 0.25 0.00 50 1029.3
20260906124606 61 274 5.0 6.0 0.00 0.25 0.00 50 1029.3
20260906123605 61 278 4.0 6.0 0.00 0.25 0.00 51 1029.2
20260906123106 61 272 3.0 6.0 0.00 0.25 0.00 51 1029.1
20260906122104 61 259 3.0 5.0 0.00 0.25 0.00 51 1029.1
20260906121606 61 259 3.0 5.0 0.00 0.25 0.00 51 1029.1
20260906121105 61 261 3.0 5.0 0.00 0.25 0.00 52 1029.0
20260906120605 61 261 3.0 5.0 0.00 0.25 0.00 51 1029.0
20260906120106 61 263 3.0 5.0 0.00 0.25 0.00 51 1028.9
20260906115606 61 271 3.0 6.0 0.00 0.25 0.00 51 1029.5
20260906114106 61 276 3.0 5.0 0.00 0.25 0.00 51 1029.5
20260906113606 61 274 3.0 6.0 0.00 0.25 0.00 51 1029.5
20260906113106 61 273 3.0 6.0 0.00 0.25 0.00 51 1029.5
20260906112605 61 273 5.0 8.0 0.00 0.25 0.00 52 1029.5
20260906112105 60 270 4.0 8.0 0.00 0.25 0.00 53 1029.0
20260906111605 61 261 4.0 6.0 0.00 0.25 0.00 53 1029.4
20260906111105 61 263 3.0 5.0 0.00 0.25 0.00 52 1029.2
20260906110605 61 269 3.0 5.0 0.00 0.25 0.00 52 1029.2
20260906110106 61 274 3.0 5.0 0.00 0.25 0.00 52 1029.2
20260906105606 61 266 2.0 3.0 0.00 0.25 0.00 51 1029.2
20260906105105 61 265 2.0 3.0 0.00 0.25 0.00 51 1029.2
20260906104606 61 265 2.0 3.0 0.00 0.25 0.00 52 1029.2
20260906104106 61 265 3.0 5.0 0.00 0.25 0.00 52 1029.3
20260906103606 61 264 2.0 6.0 0.00 0.25 0.00 52 1029.3
20260906103105 61 266 3.0 6.0 0.00 0.25 0.00 51 1029.3
20260906102605 61 267 4.0 6.0 0.00 0.25 0.00 51 1029.3
20260906101605 62 263 3.0 6.0 0.00 0.25 0.00 50 1029.2
20260906101106 62 275 3.0 5.0 0.00 0.25 0.00 50 1029.3
20260906100605 63 278 2.0 3.0 0.00 0.25 0.00 49 1029.3
20260906100106 63 278 1.0 3.0 0.00 0.25 0.00 48 1029.4
20260906095606 63 278 0.0 2.0 0.00 0.25 0.00 47 1029.3
20260906095106 63 278 0.0 2.0 0.00 0.25 0.00 48 1029.3
20260906094606 63 278 1.0 2.0 0.00 0.25 0.00 48 1029.4
20260906094106 63 278 0.0 3.0 0.00 0.25 0.00 48 1029.4
20260906093606 63 278 2.0 3.0 0.00 0.25 0.00 49 1029.4
20260906093105 62 278 2.0 3.0 0.00 0.25 0.00 49 1029.6
20260906092605 62 278 1.0 3.0 0.00 0.25 0.00 50 1029.6
20260906092106 62 278 2.0 3.0 0.00 0.25 0.00 50 1029.5
20260906091106 62 276 3.0 5.0 0.00 0.25 0.00 52 1029.6
20260906090605 62 271 3.0 5.0 0.00 0.25 0.00 51 1029.4
20260906090107 62 270 3.0 5.0 0.00 0.25 0.00 51 1029.4
20260906085606 61 273 3.0 3.0 0.00 0.25 0.00 51 1029.3
20260906085105 61 275 2.0 5.0 0.00 0.25 0.00 51 1029.3
20260906084605 62 275 2.0 5.0 0.00 0.25 0.00 51 1029.4
20260906083605 62 275 3.0 6.0 0.00 0.25 0.00 52 1029.4
20260906083106 62 270 3.0 9.0 0.00 0.25 0.00 53 1029.4
20260906082606 61 268 3.0 9.0 0.00 0.25 0.00 53 1029.4
20260906082106 61 267 6.0 9.0 0.00 0.25 0.00 53 1029.3
20260906081603 61 276 5.0 8.0 0.00 0.25 0.00 54 1029.4
20260906081103 61 262 5.0 9.0 0.00 0.25 0.00 55 1029.7
20260906080104 61 275 7.0 9.0 0.00 0.25 0.00 53 1029.5
20260906075604 61 273 5.0 8.0 0.00 0.25 0.00 54 1029.7
20260906075103 61 264 5.0 8.0 0.00 0.25 0.00 53 1029.7
20260906074603 61 277 5.0 7.0 0.00 0.25 0.00 53 1029.7
20260906074103 61 284 3.0 7.0 0.00 0.25 0.00 53 1029.7
20260906073603 61 278 3.0 6.0 0.00 0.25 0.00 53 1029.8
20260906073103 62 306 3.0 6.0 0.00 0.25 0.00 53 1029.7
20260906072603 61 317 3.0 6.0 0.00 0.25 0.00 52 1029.5
20260906072104 60 319 3.0 8.0 0.00 0.25 0.00 54 1029.5
20260906071603 60 322 4.0 8.0 0.00 0.25 0.00 56 1029.7
20260906071103 60 325 5.0 9.0 0.00 0.25 0.00 58 1029.9
20260906070603 60 320 5.0 9.0 0.00 0.25 0.00 57 1029.8
20260906070104 60 330 5.0 9.0 0.00 0.25 0.00 58 1029.9
20260906065603 60 336 6.0 9.0 0.00 0.25 0.00 58 1029.7
20260906065103 59 325 6.0 9.0 0.00 0.25 0.00 58 1029.8
20260906064103 59 330 5.0 8.0 0.00 0.25 0.00 59 1030.0
20260906062603 60 328 5.0 8.0 0.00 0.25 0.00 57 1029.9
20260906061104 60 336 5.0 8.0 0.00 0.25 0.00 57 1030.2
20260906060104 61 312 4.0 6.0 0.00 0.25 0.00 56 1030.2
20260906055603 61 297 3.0 3.0 0.00 0.25 0.25 55 1030.0
20260906055103 60 292 3.0 3.0 0.00 0.25 0.25 55 1029.9
20260906054603 59 291 3.0 3.0 0.00 0.25 0.25 58 1030.1
20260906053603 59 287 3.0 5.0 0.00 0.25 0.25 65 1030.3
20260906053104 60 275 3.0 5.0 0.00 0.25 0.25 60 1030.5
20260906052603 59 271 3.0 5.0 0.00 0.25 0.25 61 1030.4
20260906051604 58 267 3.0 5.0 0.01 0.25 0.25 65 1030.4
20260906051104 57 264 2.0 6.0 0.02 0.25 0.25 64 1030.6
20260906050603 57 266 4.0 6.0 0.06 0.25 0.25 71 1030.6
20260906050109 58 273 2.0 6.0 0.18 0.25 0.25 69 1031.0
20260906045604 58 291 3.0 6.0 0.25 0.25 0.25 68 1030.8
20260906045104 58 292 3.0 8.0 0.25 0.25 0.25 67 1030.5
20260906044603 57 304 3.0 8.0 0.25 0.25 0.25 70 1030.5
20260906044104 56 294 5.0 8.0 0.25 0.25 0.25 76 1031.1
20260906043604 56 288 4.0 8.0 0.25 0.25 0.25 76 1031.1
20260906043103 55 287 3.0 6.0 0.25 0.25 0.25 78 1031.1
20260906042103 56 272 3.0 10.0 0.25 0.25 0.25 79 1030.8
20260906041603 56 278 3.0 13.0 0.24 0.24 0.24 74 1030.8
20260906041103 56 344 6.0 24.0 0.23 0.23 0.23 73 1030.6
20260906040603 57 340 12.0 24.0 0.19 0.19 0.19 74 1031.0
20260906040105 62 339 14.0 21.0 0.07 0.07 0.07 62 1030.3
20260906035603 65 338 12.0 20.0 0.00 0.00 0.00 46 1030.1
20260906035103 65 348 7.0 18.0 0.00 0.00 0.00 46 1030.2
20260906034604 65 349 12.0 18.0 0.00 0.00 0.00 45 1030.1
20260906034104 65 346 7.0 17.0 0.00 0.00 0.00 44 1029.9
20260906033603 65 355 6.0 10.0 0.00 0.00 0.00 44 1029.8
20260906033104 65 350 5.0 8.0 0.00 0.00 0.00 43 1029.8
20260906032604 66 352 3.0 6.0 0.00 0.00 0.00 42 1029.8
20260906032104 66 317 2.0 3.0 0.00 0.00 0.00 41 1029.8
20260906031603 67 265 2.0 3.0 0.00 0.00 0.00 41 1029.8
20260906031104 67 265 1.0 2.0 0.00 0.00 0.00 41 1029.7
20260906030603 67 265 1.0 3.0 0.00 0.00 0.00 41 1029.6
20260906030104 66 265 1.0 3.0 0.00 0.00 0.00 41 1029.5
20260906025604 66 265 2.0 3.0 0.00 0.00 0.00 41 1029.5
20260906025103 66 263 2.0 3.0 0.00 0.00 0.00 41 1029.5
20260906024603 67 196 2.0 3.0 0.00 0.00 0.00 41 1029.5
20260906023104 67 136 1.0 3.0 0.00 0.00 0.00 40 1029.2
20260906022603 67 136 1.0 3.0 0.00 0.00 0.00 40 1029.3
20260906022104 67 136 2.0 3.0 0.00 0.00 0.00 41 1029.4
20260906021103 67 129 2.0 3.0 0.00 0.00 0.00 40 1029.2
20260906020603 67 120 1.0 3.0 0.00 0.00 0.00 40 1029.2
20260906020105 67 120 1.0 3.0 0.00 0.00 0.00 40 1029.1
20260906015104 67 160 1.0 3.0 0.00 0.00 0.00 39 1029.2
20260906014604 68 158 2.0 3.0 0.00 0.00 0.00 39 1029.1
20260906014104 68 133 1.0 2.0 0.00 0.00 0.00 39 1029.1
20260906013603 68 133 1.0 3.0 0.00 0.00 0.00 38 1028.9
20260906013104 69 133 0.0 3.0 0.00 0.00 0.00 38 1028.9
20260906012104 69 133 2.0 3.0 0.00 0.00 0.00 38 1029.0
20260906011604 69 133 1.0 3.0 0.00 0.00 0.00 38 1029.0
20260906011104 69 133 2.0 3.0 0.00 0.00 0.00 37 1028.9
20260906010604 70 134 1.0 6.0 0.00 0.00 0.00 37 1028.9
20260906010104 70 133 2.0 6.0 0.00 0.00 0.00 37 1029.0
20260906005103 71 134 3.0 12.0 0.00 0.00 0.00 36 1029.1
20260906004103 71 127 4.0 10.0 0.00 0.00 0.00 36 1029.0
20260906003604 71 128 5.0 13.0 0.00 0.00 0.00 36 1028.9
20260906003104 71 133 6.0 13.0 0.00 0.00 0.00 36 1028.9
20260906002604 71 134 5.0 10.0 0.00 0.00 0.00 36 1029.0
20260906002104 71 133 5.0 12.0 0.00 0.00 0.00 36 1029.0
20260906001604 71 137 5.0 12.0 0.00 0.00 0.00 35 1029.0
20260906001104 72 154 5.0 9.0 0.00 0.00 0.00 35 1028.9
20260906000604 72 141 5.0 9.0 0.00 0.00 0.00 35 1028.9
20260906000105 72 139 3.0 9.0 0.00 0.00 0.00 35 1028.9
20260905235604 73 153 6.0 9.0 0.00 0.00 0.00 34 1028.8
20260905235104 73 127 3.0 7.0 0.00 0.00 0.00 34 1028.8
20260905234604 73 140 3.0 8.0 0.00 0.00 0.00 34 1028.7
20260905234103 72 129 2.0 8.0 0.00 0.00 0.00 34 1028.8
20260905233104 72 138 7.0 12.0 0.00 0.00 0.00 35 1028.7
20260905232604 72 136 6.0 12.0 0.00 0.00 0.00 35 1028.7
20260905232105 72 156 6.0 10.0 0.00 0.00 0.00 34 1028.7
20260905231604 73 125 3.0 7.0 0.00 0.00 0.00 34 1028.6
20260905230604 73 125 5.0 12.0 0.00 0.00 0.00 34 1028.6
20260905230104 73 142 5.0 12.0 0.00 0.00 0.00 34 1028.6